Weather History for Poitiers, France

Change the Weather History Date:

Sunday, August 10, 2014

  Actual Average Record
Temperature  
Mean Temperature 68 °F -  
Max Temperature 78 °F 74 °F 102 °F (2003)
Min Temperature 55 °F 53 °F 44 °F (2001)
Cooling Degree Days 2    
Growing Degree Days 18 (Base 50)    
Moisture  
Dew Point 62 °F    
Average Humidity 78    
Maximum Humidity 94    
Minimum Humidity 51    
Precipitation  
Precipitation 0.08 in - - ()
Sea Level Pressure  
Sea Level Pressure 29.80 in    
Wind  
Wind Speed 8 mph ()    
Max Wind Speed 24 mph    
Max Gust Speed 37 mph    
Visibility 6.7 miles    
Events Rain    
Averages and records for this station are not official NWS values.
T = Trace of Precipitation, MM = Missing Value Source: Averaged Metar Reports

Daily Weather History Graph

Daily Weather History Graph

Search for Another Location

Airport:

Trip Planner

Search our weather history database for the weather conditions in past years. The results will help you decide how hot, cold, wet, or windy it might be!

Date:

Astronomy

Aug. 10, 2014 Rise Set
Actual Time 6:50 AM CEST 9:17 PM CEST
Civil Twilight 6:16 AM CEST 9:50 PM CEST
Nautical Twilight 5:34 AM CEST 10:32 PM CEST
Astronomical Twilight 4:45 AM CEST 11:20 PM CEST
Moon 8:48 PM CEST (8/10) 6:26 AM CEST (8/10)
Length of Visible Light 15h 34m
Length of Day
14h 26m
Full, 100% of the Moon is Illuminated
Aug 10
Full
Aug 10
Full
Aug 17
Last Quarter
Aug 25
New
Sep 2
First Quarter

Hourly Weather History & Observations

Time (CEST) Temp. Dew Point Humidity Pressure Visibility Wind Dir Wind Speed Gust Speed Precip Events Conditions
12:00 AM 65 °F 61 °F 83% 29.84 in 37 mi SSE 3.5 mph - -   Clear
12:00 AM 66.2 °F 60.8 °F 83% 29.83 in 6.2 mi SSE 3.5 mph - N/A   Unknown
12:30 AM 64.4 °F 60.8 °F 88% 29.83 in 6.2 mi SSE 3.5 mph - N/A   Mostly Cloudy
1:00 AM 65 °F 61 °F 82% 29.83 in 37 mi SSE 3.5 mph - -   Clear
1:00 AM 64.4 °F 60.8 °F 88% 29.83 in 6.2 mi SSE 3.5 mph - N/A   Overcast
1:30 AM 64.4 °F 60.8 °F 88% 29.80 in 6.2 mi SSE 4.6 mph - N/A   Overcast
2:00 AM 65 °F 61 °F 84% 29.81 in 37 mi SSE 3.5 mph - -   Clear
2:00 AM 64.4 °F 60.8 °F 88% 29.80 in 6.2 mi SSE 3.5 mph - N/A   Overcast
2:30 AM 66.2 °F 62.6 °F 88% 29.80 in 6.2 mi SE 5.8 mph - N/A Rain Light Rain
3:00 AM 65 °F 62 °F 87% 29.80 in 37 mi South 4.6 mph - -   Clear
3:00 AM 64.4 °F 62.6 °F 94% 29.80 in 6.2 mi South 4.6 mph - N/A   Overcast
3:30 AM 66.2 °F 62.6 °F 88% 29.77 in 6.2 mi South 3.5 mph - N/A   Mostly Cloudy
4:00 AM 65 °F 62 °F 87% 29.78 in 37 mi SW 2.3 mph - -   Clear
4:00 AM 64.4 °F 62.6 °F 94% 29.77 in 6.2 mi SW 2.3 mph - N/A   Overcast
4:30 AM 64.4 °F 62.6 °F 94% 29.77 in 6.2 mi South 3.5 mph - N/A   Overcast
5:00 AM 65 °F 62 °F 88% 29.76 in 37 mi South 3.5 mph - -   Clear
5:00 AM 64.4 °F 62.6 °F 94% 29.77 in 6.2 mi South 3.5 mph - N/A   Overcast
5:30 AM 66.2 °F 62.6 °F 88% 29.74 in 6.2 mi South 4.6 mph - N/A   Unknown
6:00 AM 66 °F 63 °F 87% 29.75 in - South 8.1 mph - -   Overcast
6:00 AM 66.2 °F 62.6 °F 88% 29.74 in 6.2 mi South 8.1 mph - N/A   Unknown
6:30 AM 66.2 °F 64.4 °F 94% 29.74 in 6.2 mi South 9.2 mph - N/A   Unknown
7:00 AM 67 °F 64 °F 88% 29.75 in - South 9.2 mph - -   Overcast
7:00 AM 66.2 °F 64.4 °F 94% 29.74 in 6.2 mi South 9.2 mph - N/A   Unknown
7:30 AM 68.0 °F 64.4 °F 88% 29.74 in 6.2 mi South 10.4 mph - N/A   Unknown
8:00 AM 68 °F 65 °F 89% 29.75 in - SSW 9.2 mph - -   Overcast
8:00 AM 68.0 °F 66.2 °F 94% 29.74 in 6.2 mi SSW 9.2 mph - N/A   Unknown
8:30 AM 68.0 °F 66.2 °F 94% 29.74 in 6.2 mi South 11.5 mph - N/A   Overcast
9:00 AM 69 °F 66 °F 86% 29.75 in - SSW 12.7 mph - -   Overcast
9:00 AM 68.0 °F 66.2 °F 94% 29.74 in 6.2 mi SSW 12.7 mph - N/A   Overcast
9:30 AM 69.8 °F 66.2 °F 88% 29.74 in 6.2 mi South 15.0 mph - N/A   Overcast
10:00 AM 71 °F 66 °F 80% 29.75 in 31 mi South 15.0 mph - -   Clear
10:00 AM 71.6 °F 66.2 °F 83% 29.74 in 6.2 mi South 15.0 mph - N/A   Overcast
10:30 AM 71.6 °F 66.2 °F 83% 29.74 in 6.2 mi SSW 16.1 mph - N/A   Overcast
11:00 AM 72 °F 67 °F 79% 29.74 in 12 mi SSW 17.3 mph - -   Clear
11:00 AM 71.6 °F 66.2 °F 83% 29.74 in - SSW 17.3 mph - N/A   Mostly Cloudy
11:30 AM 73.4 °F 64.4 °F 73% 29.74 in 6.2 mi SW 18.4 mph - N/A   Mostly Cloudy
12:00 PM 75 °F 67 °F 68% 29.73 in - WSW 19.6 mph - -   Mostly Cloudy
12:00 PM 75.2 °F 66.2 °F 73% 29.74 in 6.2 mi WSW 19.6 mph - N/A   Mostly Cloudy
12:30 PM 77.0 °F 64.4 °F 65% 29.74 in 6.2 mi SW 20.7 mph - N/A   Mostly Cloudy
1:00 PM 76 °F 62 °F 52% 29.74 in - WSW 21.9 mph - -   Mostly Cloudy
1:30 PM 77.0 °F 62.6 °F 61% 29.74 in 6.2 mi WSW 21.9 mph 33.4 mph N/A   Mostly Cloudy
2:00 PM 76 °F 63 °F 55% 29.74 in 25 mi WSW 19.6 mph - -   Clear
2:00 PM 77.0 °F 62.6 °F 61% 29.74 in 6.2 mi WSW 19.6 mph - N/A   Overcast
2:30 PM 75.2 °F 62.6 °F 65% 29.74 in 6.2 mi SW 23.0 mph 36.8 mph N/A   Overcast
3:00 PM 72 °F 65 °F 72% 29.76 in - SW 24.2 mph - - Rain Light Rain Showers
3:00 PM 71.6 °F 64.4 °F 78% 29.77 in 6.2 mi SW 24.2 mph - N/A Rain Light Rain
3:30 PM 75.2 °F 66.2 °F 73% 29.77 in 6.2 mi SW 20.7 mph - N/A   Mostly Cloudy
4:00 PM 75 °F 65 °F 63% 29.77 in 19 mi SW 18.4 mph - -   Clear
4:00 PM 75.2 °F 64.4 °F 69% 29.77 in 6.2 mi SW 18.4 mph - N/A   Mostly Cloudy
4:30 PM 68.0 °F 66.2 °F 94% 29.80 in 6.2 mi WSW 15.0 mph - N/A   Mostly Cloudy
5:00 PM 70 °F 64 °F 77% 29.81 in 14 mi West 12.7 mph - -   Clear
5:00 PM 69.8 °F 64.4 °F 83% 29.80 in 6.2 mi West 12.7 mph - N/A   Mostly Cloudy
5:30 PM 69.8 °F 64.4 °F 83% 29.83 in 6.2 mi WSW 16.1 mph - N/A   Mostly Cloudy
6:00 PM 71 °F 62 °F 65% 29.83 in - WSW 16.1 mph - -   Mostly Cloudy
6:00 PM 71.6 °F 62.6 °F 73% 29.83 in 6.2 mi WSW 16.1 mph - N/A   Overcast
6:30 PM 69.8 °F 59.0 °F 68% 29.83 in 6.2 mi WSW 13.8 mph - N/A   Mostly Cloudy
7:00 PM 69 °F 56 °F 55% 29.85 in 22 mi West 15.0 mph - -   Clear
7:00 PM 69.8 °F 57.2 °F 64% 29.86 in 6.2 mi West 15.0 mph - N/A   Partly Cloudy
7:30 PM 68.0 °F 59.0 °F 73% 29.86 in 6.2 mi West 8.1 mph - N/A   Mostly Cloudy
8:00 PM 68 °F 54 °F 51% 29.87 in 25 mi West 11.5 mph - -   Clear
8:00 PM 68.0 °F 53.6 °F 60% 29.86 in 6.2 mi West 11.5 mph - N/A   Partly Cloudy
8:30 PM 66.2 °F 51.8 °F 60% 29.89 in 6.2 mi WSW 9.2 mph - N/A   Scattered Clouds
9:00 PM 65 °F 52 °F 54% 29.90 in 37 mi WSW 9.2 mph - -   Clear
9:00 PM 64.4 °F 51.8 °F 64% 29.89 in 6.2 mi WSW 9.2 mph - N/A   Scattered Clouds
9:30 PM 60.8 °F 51.8 °F 72% 29.92 in 6.2 mi SW 6.9 mph - N/A   Unknown
10:00 PM 60.8 °F 51.8 °F 72% 29.92 in 6.2 mi WSW 5.8 mph - N/A   Unknown
10:30 PM 60.8 °F 51.8 °F 72% 29.95 in 6.2 mi WSW 6.9 mph - N/A   Unknown
11:00 PM 57 °F 51 °F 74% 29.96 in 37 mi SW 8.1 mph - -   Clear
11:00 PM 57.2 °F 51.8 °F 82% 29.95 in 6.2 mi SW 8.1 mph - N/A   Unknown
11:30 PM 55.4 °F 50.0 °F 82% 29.98 in 6.2 mi SW 6.9 mph - N/A   Unknown